Location: Unspecified
(0.0000°N, 0.0000°E)
Time: 11:50:36
(UTC+00:00)

N. Korean satellite - Pass Details

Date: 21 March 2019
Orbit: 456 x 510 km, 97.2° (Epoch: 23 March)

Event Time Altitude Azimuth Distance (km) Brightness Sun altitude
Rises 18:37:12 0° 203° (SSW) 2,529 10.5 -7.5°
Reaches altitude 10° 18:40:26 10° 236° (SW) 1,633 10.2 -8.3°
Maximum altitude 18:41:45 12° 258° (WSW) 1,520 10.6 -8.6°
Drops below altitude 10° 18:43:03 10° 280° (W) 1,619 10.8 -9.0°
Sets 18:46:15 0° 314° (NW) 2,478 10.9 -9.8°
